GW4076 Weather Reports


Display with metric or nautical units.
time (UTC)temp
F
wind
direction
speed
MPH
gust
MPH
rain 1hr
in
rain 24hr
in
rain mn
in
humidity
%
barometer
mb
20260509185542 66 21 0.0 4.0 0.00 0.00 0.00 58 1009.6
20260509185042 66 13 1.0 4.0 0.00 0.00 0.00 57 1009.6
20260509184553 65 17 1.0 4.0 0.00 0.00 0.00 58 1009.6
20260509184041 65 0 1.0 5.0 0.00 0.00 0.00 58 1009.5
20260509183545 65 0 1.0 5.0 0.00 0.00 0.00 62 1009.8
20260509183051 66 16 1.0 4.0 0.00 0.00 0.00 58 1009.9
20260509182544 65 0 1.0 4.0 0.00 0.00 0.00 58 1009.8
20260509182042 65 340 2.0 6.0 0.00 0.00 0.00 61 1009.6
20260509181553 64 0 1.0 7.0 0.00 0.00 0.00 62 1009.7
20260509181042 64 123 1.0 7.0 0.00 0.00 0.00 60 1009.9
20260509180545 63 38 0.0 3.0 0.00 0.00 0.00 69 1010.1
20260509180100 63 0 1.0 3.0 0.00 0.00 0.00 64 1010.1
20260509175542 62 0 0.0 5.0 0.00 0.00 0.00 64 1010.2
20260509175042 62 0 1.0 5.0 0.00 0.00 0.00 62 1010.4
20260509174553 63 0 0.0 4.0 0.00 0.00 0.00 64 1010.7
20260509174043 62 350 0.0 2.0 0.00 0.00 0.00 62 1010.6
20260509173541 62 0 0.0 3.0 0.00 0.00 0.00 63 1010.8
20260509173056 62 349 0.0 3.0 0.00 0.00 0.00 64 1010.8
20260509172544 62 0 0.0 3.0 0.00 0.00 0.00 65 1010.8
20260509172043 62 0 0.0 4.0 0.00 0.00 0.00 66 1010.8
20260509171555 62 0 0.0 4.0 0.00 0.00 0.00 67 1011.0
20260509171041 61 0 0.0 3.0 0.00 0.00 0.00 66 1011.1
20260509170546 61 0 0.0 3.0 0.00 0.00 0.00 65 1011.1
20260509170059 61 0 0.0 3.0 0.00 0.00 0.00 65 1011.2
20260509165547 61 0 0.0 5.0 0.00 0.00 0.00 65 1011.1
20260509165041 61 351 0.0 5.0 0.00 0.00 0.00 64 1011.0
20260509164551 62 334 1.0 5.0 0.00 0.00 0.00 66 1010.8
20260509164042 62 336 0.0 4.0 0.00 0.00 0.00 65 1010.7
20260509163542 61 0 0.0 4.0 0.00 0.00 0.00 65 1010.5
20260509163103 61 0 0.0 3.0 0.00 0.00 0.00 64 1010.6
20260509162542 61 11 0.0 4.0 0.00 0.00 0.00 63 1010.7
20260509162044 61 0 0.0 5.0 0.00 0.00 0.00 63 1010.7
20260509161556 61 0 0.0 5.0 0.00 0.00 0.00 63 1010.7
20260509161044 61 9 0.0 4.0 0.00 0.00 0.00 65 1010.9
20260509160547 61 5 0.0 2.0 0.00 0.00 0.00 65 1011.0
20260509160051 61 0 0.0 3.0 0.00 0.00 0.00 63 1010.8
20260509155546 61 0 1.0 4.0 0.00 0.00 0.00 63 1010.9
20260509155045 61 0 0.0 5.0 0.00 0.00 0.00 62 1011.0
20260509154606 61 13 1.0 5.0 0.00 0.00 0.00 62 1011.1
20260509154041 61 346 0.0 3.0 0.00 0.00 0.00 64 1011.0
20260509153543 60 0 0.0 3.0 0.00 0.00 0.00 63 1011.0
20260509153052 60 343 0.0 4.0 0.00 0.00 0.00 63 1011.1
20260509152542 60 343 0.0 4.0 0.00 0.00 0.00 64 1011.2
20260509152045 60 332 1.0 4.0 0.00 0.00 0.00 65 1011.2
20260509151554 60 330 0.0 1.0 0.00 0.00 0.00 64 1011.2
20260509151042 60 0 0.0 1.0 0.00 0.00 0.00 65 1011.2
20260509150542 60 330 0.0 1.0 0.00 0.00 0.00 65 1011.2
20260509150108 59 0 0.0 1.0 0.00 0.00 0.00 66 1011.4
20260509145544 59 0 0.0 2.0 0.00 0.00 0.00 67 1011.4
20260509145042 59 0 0.0 2.0 0.00 0.00 0.00 68 1011.4
20260509144556 58 330 0.0 2.0 0.00 0.00 0.00 67 1011.4
20260509144045 58 0 0.0 0.0 0.00 0.00 0.00 70 1011.4
20260509143542 58 0 0.0 0.0 0.00 0.00 0.00 71 1011.4
20260509143059 57 0 0.0 1.0 0.00 0.00 0.00 71 1011.4
20260509142544 57 0 0.0 1.0 0.00 0.00 0.00 69 1011.5
20260509142041 57 0 0.0 1.0 0.00 0.00 0.00 70 1011.4
20260509141558 58 0 0.0 1.0 0.00 0.00 0.00 73 1011.3
20260509141042 58 0 0.0 1.0 0.00 0.00 0.00 72 1011.1
20260509140544 58 0 0.0 1.0 0.00 0.00 0.00 72 1010.9
20260509140104 58 0 0.0 2.0 0.00 0.00 0.00 71 1010.7
20260509135548 58 0 0.0 2.0 0.00 0.00 0.00 69 1010.7
20260509135048 58 330 0.0 1.0 0.00 0.00 0.00 71 1010.8
20260509134553 58 0 0.0 1.0 0.00 0.00 0.00 68 1011.0
20260509134042 57 0 0.0 1.0 0.00 0.00 0.00 69 1011.0
20260509133541 57 0 0.0 1.0 0.00 0.00 0.00 71 1011.1
20260509133101 57 0 0.0 1.0 0.00 0.00 0.00 70 1011.1
20260509132543 57 0 0.0 2.0 0.00 0.00 0.00 69 1011.3
20260509132042 57 0 0.0 2.0 0.00 0.00 0.00 69 1011.2
20260509131549 56 0 0.0 1.0 0.00 0.00 0.00 71 1011.2
20260509131044 56 0 0.0 0.0 0.00 0.00 0.00 72 1011.0
20260509130544 56 0 0.0 0.0 0.00 0.00 0.00 73 1011.0
20260509130056 55 0 0.0 0.0 0.00 0.00 0.00 73 1010.9
20260509125543 55 0 0.0 1.0 0.00 0.00 0.00 75 1011.1
20260509125043 55 0 0.0 1.0 0.00 0.00 0.00 76 1011.0
20260509124555 55 0 0.0 1.0 0.00 0.00 0.00 74 1011.0
20260509124042 55 0 0.0 1.0 0.00 0.00 0.00 74 1011.0
20260509123542 55 0 0.0 1.0 0.00 0.00 0.00 72 1011.1
20260509123101 55 0 0.0 0.0 0.00 0.00 0.00 73 1011.1
20260509122541 55 0 0.0 0.0 0.00 0.00 0.00 73 1011.1
20260509122044 55 0 0.0 0.0 0.00 0.00 0.00 73 1011.1
20260509121558 55 0 0.0 0.0 0.00 0.00 0.00 73 1011.2
20260509121048 55 0 0.0 0.0 0.00 0.00 0.00 73 1011.2
20260509120544 55 0 0.0 0.0 0.00 0.00 0.00 75 1011.2
20260509120049 55 0 0.0 0.0 0.00 0.00 0.00 74 1011.2
20260509115541 54 0 0.0 0.0 0.00 0.00 0.00 69 1011.0
20260509115042 54 0 0.0 1.0 0.00 0.00 0.00 72 1010.8
20260509114600 54 0 0.0 1.0 0.00 0.00 0.00 72 1010.7
20260509114046 54 0 0.0 1.0 0.00 0.00 0.00 71 1010.7
20260509113543 54 0 0.0 1.0 0.00 0.00 0.00 72 1010.8
20260509113048 54 0 0.0 1.0 0.00 0.00 0.00 71 1010.8
20260509112545 54 0 0.0 1.0 0.00 0.00 0.00 74 1010.7
20260509112046 54 0 0.0 1.0 0.00 0.00 0.00 74 1010.8
20260509111555 54 0 0.0 1.0 0.00 0.00 0.00 72 1010.8
20260509111047 54 0 0.0 2.0 0.00 0.00 0.00 71 1011.0
20260509110544 54 0 0.0 2.0 0.00 0.00 0.00 70 1011.0
20260509110053 53 351 0.0 1.0 0.00 0.00 0.00 68 1010.7
20260509105542 53 0 0.0 0.0 0.00 0.00 0.00 71 1010.7
20260509105045 53 0 0.0 0.0 0.00 0.00 0.00 70 1010.7
20260509104552 53 0 0.0 0.0 0.00 0.00 0.00 69 1010.7
20260509104044 53 0 0.0 1.0 0.00 0.00 0.00 71 1010.5
20260509103545 53 0 0.0 1.0 0.00 0.00 0.00 68 1010.4
20260509103101 53 0 0.0 0.0 0.00 0.00 0.00 69 1010.5
20260509102546 53 0 0.0 0.0 0.00 0.00 0.00 70 1010.5
20260509102045 53 0 0.0 0.0 0.00 0.00 0.00 70 1010.6
20260509101554 53 0 0.0 0.0 0.00 0.00 0.00 71 1010.6
20260509101044 53 0 0.0 0.0 0.00 0.00 0.00 69 1010.4
20260509100544 53 0 0.0 0.0 0.00 0.00 0.00 70 1010.3
20260509100053 53 0 0.0 0.0 0.00 0.00 0.00 69 1010.4
20260509095542 53 0 0.0 0.0 0.00 0.00 0.00 70 1010.6
20260509095046 53 0 0.0 0.0 0.00 0.00 0.00 70 1010.5
20260509094553 53 0 0.0 0.0 0.00 0.00 0.00 70 1010.4
20260509094044 53 0 0.0 0.0 0.00 0.00 0.00 70 1010.6
20260509093544 53 0 0.0 2.0 0.00 0.00 0.00 68 1010.6
20260509093056 53 0 0.0 2.0 0.00 0.00 0.00 68 1010.5
20260509092544 53 351 0.0 0.0 0.00 0.00 0.00 69 1010.5
20260509092044 54 0 0.0 0.0 0.00 0.00 0.00 67 1010.6
20260509091556 54 0 0.0 0.0 0.00 0.00 0.00 67 1010.5
20260509091045 54 0 0.0 0.0 0.00 0.00 0.00 67 1010.6
20260509090544 54 0 0.0 0.0 0.00 0.00 0.00 68 1010.6
20260509090101 54 0 0.0 0.0 0.00 0.00 0.00 67 1010.6
20260509085548 54 0 0.0 0.0 0.00 0.00 0.00 66 1010.6
20260509085044 54 0 0.0 0.0 0.00 0.00 0.00 66 1010.8
20260509084553 54 0 0.0 0.0 0.00 0.00 0.00 66 1010.7
20260509084046 54 0 0.0 0.0 0.00 0.00 0.00 66 1010.7
20260509083544 54 0 0.0 0.0 0.00 0.00 0.00 66 1010.7
20260509083052 55 0 0.0 0.0 0.00 0.00 0.00 65 1010.8
20260509082544 55 0 0.0 0.0 0.00 0.00 0.00 65 1010.7
20260509082045 55 0 0.0 0.0 0.00 0.00 0.00 64 1010.7
20260509081552 55 0 0.0 0.0 0.00 0.00 0.00 63 1010.8
20260509081043 55 0 0.0 0.0 0.00 0.00 0.00 64 1010.6
20260509080544 55 0 0.0 0.0 0.00 0.00 0.00 64 1010.7
20260509080108 55 0 0.0 0.0 0.00 0.00 0.00 63 1010.7
20260509075544 55 0 0.0 0.0 0.00 0.00 0.00 64 1010.6
20260509075047 55 0 0.0 0.0 0.00 0.00 0.00 64 1010.7
20260509074558 55 0 0.0 0.0 0.00 0.00 0.00 64 1010.5
20260509074047 55 0 0.0 0.0 0.00 0.00 0.00 64 1010.7
20260509073544 55 0 0.0 0.0 0.00 0.00 0.00 64 1010.7
20260509073108 55 0 0.0 0.0 0.00 0.00 0.00 65 1010.7
20260509072542 55 0 0.0 0.0 0.00 0.00 0.00 64 1010.8
20260509072045 54 0 0.0 0.0 0.00 0.00 0.00 65 1010.8
20260509071552 54 0 0.0 0.0 0.00 0.00 0.00 64 1010.8
20260509071045 54 0 0.0 0.0 0.00 0.00 0.00 64 1010.8
20260509070545 54 0 0.0 0.0 0.00 0.00 0.00 64 1010.8
20260509070058 54 0 0.0 0.0 0.00 0.00 0.00 66 1010.8
20260509065544 54 0 0.0 0.0 0.00 0.00 0.00 64 1010.8
20260509065044 54 0 0.0 0.0 0.00 0.00 0.00 64 1010.8
20260509064552 55 0 0.0 0.0 0.00 0.00 0.00 64 1010.9
20260509064042 55 0 0.0 0.0 0.00 0.00 0.00 63 1010.9
20260509063543 55 0 0.0 0.0 0.00 0.00 0.00 63 1011.0
20260509063103 55 0 0.0 0.0 0.00 0.00 0.00 63 1011.0
20260509062541 55 0 0.0 0.0 0.00 0.00 0.00 62 1011.1
20260509062044 55 0 0.0 0.0 0.00 0.00 0.00 62 1011.2
20260509061553 55 0 0.0 0.0 0.00 0.00 0.00 62 1011.2
20260509061045 55 0 0.0 0.0 0.00 0.00 0.00 62 1011.3
20260509060545 55 0 0.0 0.0 0.00 0.00 0.00 63 1011.2
20260509060054 55 0 0.0 0.0 0.00 0.00 0.00 64 1011.2
20260509055545 55 0 0.0 0.0 0.00 0.00 0.00 61 1011.2
20260509055043 55 0 0.0 0.0 0.00 0.00 0.00 62 1011.2
20260509054553 55 0 0.0 0.0 0.00 0.00 0.00 63 1011.3
20260509054041 55 0 0.0 0.0 0.00 0.00 0.00 62 1011.3
20260509053545 55 0 0.0 0.0 0.00 0.00 0.00 62 1011.3
20260509053048 55 0 0.0 0.0 0.00 0.00 0.00 62 1011.3
20260509052544 55 0 0.0 1.0 0.00 0.00 0.00 63 1011.3
20260509052041 55 0 0.0 2.0 0.00 0.00 0.00 64 1011.2
20260509051553 55 0 0.0 2.0 0.00 0.00 0.00 64 1011.1
20260509051044 55 0 0.0 1.0 0.00 0.00 0.00 64 1011.2
20260509050544 55 0 0.0 1.0 0.00 0.00 0.00 63 1011.3
20260509050100 55 0 0.0 1.0 0.00 0.00 0.00 62 1011.4
20260509045541 55 0 0.0 0.0 0.00 0.00 0.00 62 1011.4
20260509045043 55 0 0.0 0.0 0.00 0.00 0.00 61 1011.6
20260509044549 55 0 0.0 0.0 0.00 0.00 0.00 62 1011.6
20260509044044 55 0 0.0 0.0 0.00 0.00 0.00 62 1011.6
20260509043542 55 0 0.0 0.0 0.00 0.00 0.00 62 1011.5
20260509043048 55 0 0.0 0.0 0.00 0.00 0.00 62 1011.5
20260509042543 55 0 0.0 1.0 0.00 0.00 0.00 61 1011.5
20260509042044 56 0 0.0 1.0 0.00 0.00 0.00 62 1011.6
20260509041551 56 0 0.0 1.0 0.00 0.00 0.00 62 1011.5
20260509041044 56 0 0.0 0.0 0.00 0.00 0.00 61 1011.5
20260509040546 56 0 0.0 1.0 0.00 0.00 0.00 61 1011.6
20260509040056 56 0 0.0 1.0 0.00 0.00 0.00 60 1011.5
20260509035543 56 0 0.0 1.0 0.00 0.00 0.00 60 1011.6
20260509035044 56 0 0.0 2.0 0.00 0.00 0.00 60 1011.7
20260509034559 57 0 0.0 2.0 0.00 0.00 0.00 60 1011.6
20260509034044 57 0 0.0 2.0 0.00 0.00 0.00 60 1011.6
20260509033543 57 0 0.0 2.0 0.00 0.00 0.00 60 1011.7
20260509033104 57 351 0.0 2.0 0.00 0.00 0.00 59 1011.6
20260509032543 57 351 0.0 3.0 0.00 0.00 0.00 58 1011.6
20260509032042 57 0 1.0 3.0 0.00 0.00 0.00 58 1011.5
20260509031553 57 0 0.0 3.0 0.00 0.00 0.00 58 1011.5
20260509031043 57 351 1.0 3.0 0.00 0.00 0.00 58 1011.6
20260509030545 57 351 1.0 3.0 0.00 0.00 0.00 59 1011.6
20260509030055 57 351 0.0 2.0 0.00 0.00 0.00 59 1011.7
20260509025544 57 0 0.0 3.0 0.00 0.00 0.00 59 1011.9
20260509025043 57 0 0.0 4.0 0.00 0.00 0.00 59 1011.8
20260509024601 56 0 0.0 4.0 0.00 0.00 0.00 58 1011.9
20260509024044 56 351 0.0 3.0 0.00 0.00 0.00 58 1011.9
20260509023544 56 306 0.0 3.0 0.00 0.00 0.00 59 1011.9
20260509023056 57 306 0.0 3.0 0.00 0.00 0.00 61 1011.9
20260509022543 57 0 0.0 3.0 0.00 0.00 0.00 59 1011.9
20260509022043 57 0 1.0 3.0 0.00 0.00 0.00 60 1012.0
20260509021551 57 0 0.0 3.0 0.00 0.00 0.00 59 1011.9
20260509021046 57 305 1.0 3.0 0.00 0.00 0.00 58 1011.9
20260509020543 57 305 1.0 3.0 0.00 0.00 0.00 59 1011.9
20260509020050 57 304 0.0 2.0 0.00 0.00 0.00 59 1011.9
20260509015543 57 304 0.0 3.0 0.00 0.00 0.00 58 1011.9
20260509015048 57 304 0.0 3.0 0.00 0.00 0.00 59 1011.9
20260509014550 57 0 0.0 3.0 0.00 0.00 0.00 59 1012.0
20260509014044 57 304 0.0 3.0 0.00 0.00 0.00 60 1011.9
20260509013541 57 304 0.0 2.0 0.00 0.00 0.00 58 1012.0
20260509013054 58 0 0.0 2.0 0.00 0.00 0.00 59 1011.9
20260509012542 58 0 0.0 2.0 0.00 0.00 0.00 59 1012.0
20260509012045 58 0 0.0 2.0 0.00 0.00 0.00 58 1011.9
20260509011601 58 303 0.0 2.0 0.00 0.00 0.00 57 1012.0
20260509011043 58 0 0.0 2.0 0.00 0.00 0.00 59 1011.9
20260509010545 59 0 0.0 1.0 0.00 0.00 0.00 58 1011.9
20260509010055 59 0 0.0 0.0 0.00 0.00 0.00 57 1011.9
20260509005543 59 0 0.0 1.0 0.00 0.00 0.00 58 1011.8
20260509005043 59 0 0.0 2.0 0.00 0.00 0.00 57 1011.8
20260509004558 59 0 0.0 2.0 0.00 0.00 0.00 56 1011.8
20260509004045 59 0 0.0 1.0 0.00 0.00 0.00 58 1011.9
20260509003543 60 0 0.0 1.0 0.00 0.00 0.00 57 1011.8
20260509003055 60 0 0.0 1.0 0.00 0.00 0.00 55 1011.8
20260509002549 60 303 0.0 1.0 0.00 0.00 0.00 57 1011.7
20260509002042 60 303 0.0 1.0 0.00 0.00 0.00 56 1011.8
20260509001554 60 303 0.0 1.0 0.00 0.00 0.00 54 1011.8
20260509001043 61 0 0.0 1.0 0.00 0.00 0.00 55 1011.7
20260509000545 61 0 0.0 1.0 0.00 0.00 0.00 56 1011.7
20260509000048 61 0 0.0 0.0 0.00 0.00 0.00 54 1011.7
20260508235543 61 0 0.0 0.0 0.00 0.00 0.00 51 1011.6
20260508235042 62 0 0.0 0.0 0.00 0.00 0.00 51 1011.6
20260508234552 63 0 0.0 0.0 0.00 0.00 0.00 50 1011.6
20260508234046 63 0 0.0 0.0 0.00 0.00 0.00 50 1011.4
20260508233543 64 0 0.0 0.0 0.00 0.00 0.00 47 1011.4
20260508233102 64 0 0.0 0.0 0.00 0.00 0.00 50 1011.4
20260508232543 65 0 0.0 0.0 0.00 0.00 0.00 47 1011.4
20260508232045 65 0 0.0 0.0 0.00 0.00 0.00 44 1011.3
20260508231556 65 0 0.0 0.0 0.00 0.00 0.00 44 1011.3
20260508231044 64 0 0.0 2.0 0.00 0.00 0.00 43 1011.1
20260508230544 64 0 0.0 2.0 0.00 0.00 0.00 42 1011.1
20260508230052 64 0 0.0 3.0 0.00 0.00 0.00 42 1011.1
20260508225543 64 0 0.0 5.0 0.00 0.00 0.00 42 1011.2
20260508225043 65 0 0.0 5.0 0.00 0.00 0.00 42 1011.3
20260508224609 65 0 1.0 5.0 0.00 0.00 0.00 40 1011.3
20260508224042 65 306 0.0 5.0 0.00 0.00 0.00 41 1011.3
20260508223544 65 0 0.0 5.0 0.00 0.00 0.00 41 1011.3
20260508223052 66 306 1.0 5.0 0.00 0.00 0.00 42 1011.2
20260508222545 66 297 1.0 4.0 0.00 0.00 0.00 41 1011.2
20260508222045 65 0 0.0 6.0 0.00 0.00 0.00 42 1011.1
20260508221557 65 269 0.0 7.0 0.00 0.00 0.00 43 1011.2
20260508221045 65 0 2.0 7.0 0.00 0.00 0.00 40 1011.2
20260508220546 65 208 1.0 5.0 0.00 0.00 0.00 39 1011.2
20260508220053 65 0 1.0 5.0 0.00 0.00 0.00 40 1011.3
20260508215543 65 0 0.0 6.0 0.00 0.00 0.00 39 1011.3
20260508215043 65 0 1.0 9.0 0.00 0.00 0.00 39 1011.3
20260508214554 65 329 2.0 9.0 0.00 0.00 0.00 38 1011.3
20260508214043 65 314 1.0 7.0 0.00 0.00 0.00 40 1011.3
20260508213542 65 311 0.0 9.0 0.00 0.00 0.00 40 1011.3
20260508213052 65 0 2.0 9.0 0.00 0.00 0.00 40 1011.4
20260508212543 65 195 1.0 7.0 0.00 0.00 0.00 37 1011.5
20260508212042 66 245 1.0 10.0 0.00 0.00 0.00 38 1011.4
20260508211553 66 217 1.0 10.0 0.00 0.00 0.00 37 1011.4
20260508211045 66 317 2.0 10.0 0.00 0.00 0.00 37 1011.4
20260508210544 66 265 2.0 7.0 0.00 0.00 0.00 38 1011.4
20260508210050 67 263 1.0 9.0 0.00 0.00 0.00 39 1011.2
20260508205544 67 261 2.0 10.0 0.00 0.00 0.00 36 1011.3
20260508205042 67 297 2.0 10.0 0.00 0.00 0.00 37 1011.3
20260508204554 67 293 2.0 10.0 0.00 0.00 0.00 35 1011.3
20260508204042 68 236 2.0 11.0 0.00 0.00 0.00 35 1011.3
20260508203543 68 243 4.0 11.0 0.00 0.00 0.00 33 1011.3
20260508203101 69 255 3.0 13.0 0.00 0.00 0.00 32 1011.4
20260508202543 69 297 3.0 13.0 0.00 0.00 0.00 34 1011.4
20260508202042 69 243 2.0 15.0 0.00 0.00 0.00 33 1011.5
20260508201555 69 173 4.0 15.0 0.00 0.00 0.00 34 1011.4
20260508201043 68 202 2.0 7.0 0.00 0.00 0.00 33 1011.5
20260508200546 68 200 3.0 9.0 0.00 0.00 0.00 35 1011.5
20260508200107 68 248 5.0 14.0 0.00 0.00 0.00 33 1011.5
20260508195544 68 218 4.0 14.0 0.00 0.00 0.00 35 1011.4
20260508195042 67 234 3.0 9.0 0.00 0.00 0.00 35 1011.5
20260508194552 67 254 2.0 9.0 0.00 0.00 0.00 35 1011.6
20260508194044 67 257 4.0 10.0 0.00 0.00 0.00 35 1011.6
20260508193541 66 204 2.0 10.0 0.00 0.00 0.00 35 1011.7
20260508193101 67 192 4.0 10.0 0.00 0.00 0.00 36 1011.7
20260508192542 67 218 2.0 10.0 0.00 0.00 0.00 36 1011.6
20260508192046 66 194 2.0 13.0 0.00 0.00 0.00 35 1011.7
20260508191551 66 224 4.0 17.0 0.00 0.00 0.00 37 1011.9
20260508191042 67 242 6.0 17.0 0.00 0.00 0.00 35 1012.0
20260508190545 67 298 2.0 11.0 0.00 0.00 0.00 38 1012.0
20260508190057 66 298 4.0 14.0 0.00 0.00 0.00 36 1012.2